Weather observations for the past three days for
Burnet, Burnet Municipal Craddock Field
Imperial (Metric)
Date Time (cdt) Wind (mph) Vis. (mi.) Weather Sky Cond. Temperature (ºF) Relative Humidity Wind Chill (°F) Heat Index (°F) Pressure Precipitation (in)
Air Dwpt 6 hour altimeter (in) sea level (mb) 1 hr 3 hr 6 hr
Max. Min.
17 05:53 S 5 10.00 Partly Cloudy SCT016 77 73.9 90% 78 29.86 1009.0
17 04:53 S 7 10.00 Mostly Cloudy BKN013 78.1 73.9 87% 81 29.85 1008.7
17 03:53 S 7 10.00 Overcast OVC017 78.1 73.9 87% 81 29.85 1008.8
17 02:53 SE 8 10.00 A Few Clouds FEW020 78.1 73 85% 81 29.86 1009.0
17 01:53 SE 8 10.00 Fair CLR 79 72 79% 82 29.88 1009.7
17 00:53 S 9 G 16 10.00 A Few Clouds FEW024 81 73 91.9 81 77% 86 29.89 1010.1
16 23:53 SE 9 G 25 10.00 Fair CLR 82 72 72% 87 29.89 1010.0
16 22:53 SE 8 G 21 10.00 Mostly Cloudy BKN036 84 72 67% 90 29.87 1009.5
16 21:53 SE 9 G 21 10.00 A Few Clouds FEW042 84.9 71.1 63% 90 29.84 1008.5
16 20:53 SE 9 10.00 Fair CLR 87.1 68 53% 91 29.82 1007.8
16 19:53 SE 8 10.00 Fair CLR 90 66.9 47% 93 29.81 1007.3
16 18:53 SE 12 G 22 10.00 A Few Clouds FEW065 91.9 66.9 93.9 88 44% 95 29.8 1007.2
16 17:53 S 9 G 17 10.00 Fair CLR 93 66.9 42% 97 29.81 1007.4
16 16:53 SE 10 G 22 10.00 Mostly Cloudy SCT055 BKN070 91 69.1 49% 96 29.82 1007.8
16 15:53 SE 12 G 21 10.00 Partly Cloudy FEW055 SCT070 93.9 69.1 44% 99 29.84 1008.3
16 14:53 SE 8 10.00 A Few Clouds FEW050 91.9 70 49% 98 29.86 1008.9
16 13:53 S 9 G 21 10.00 Fair CLR 91 69.1 49% 96 29.89 1009.9
16 12:53 S 9 G 18 10.00 Mostly Cloudy BKN046 88 70 90 75.9 55% 93 29.91 1010.6
16 11:53 Calm 10.00 A Few Clouds FEW038 88 70 55% 93 29.89 1010.1
16 10:53 S 10 10.00 Mostly Cloudy BKN028 BKN036 84 72 67% 90 29.91 1010.8
16 09:53 S 8 10.00 Mostly Cloudy BKN020 BKN027 82 73 74% 87 29.96 1012.4
16 08:53 S 6 10.00 Mostly Cloudy BKN012 79 73.9 85% 83 29.91 1010.9
16 07:53 S 7 10.00 Fair CLR 77 73.9 90% 78 29.93 1011.4
16 06:53 S 3 10.00 Fair CLR 75.9 73 80.1 75.9 91% 76 29.93 1011.4
16 05:53 S 8 10.00 Mostly Cloudy SCT014 BKN024 75.9 73 91% 76 29.92 1010.9
16 04:53 S 12 G 23 10.00 Overcast BKN014 BKN023 OVC027 77 73 88% 78 29.89 1010.2
16 03:53 S 8 G 21 10.00 Mostly Cloudy BKN018 78.1 73 85% 81 29.88 1009.7
16 02:53 S 9 G 18 10.00 Overcast OVC019 78.1 73 85% 81 29.9 1010.4
16 01:53 S 9 10.00 Fair CLR 79 72 79% 82 29.92 1011.0
16 00:53 SE 9 10.00 Fair CLR 80.1 72 91.9 80.1 76% 84 29.92 1011.1
15 23:53 SE 7 10.00 Mostly Cloudy BKN039 82 72 72% 87 29.93 1011.3
15 22:53 S 9 G 24 10.00 Partly Cloudy FEW036 SCT047 84 72 67% 90 29.9 1010.5
15 21:53 SE 8 10.00 Fair CLR 84 70 63% 88 29.88 1009.7
15 20:53 E 6 10.00 A Few Clouds FEW075 86 70 59% 91 29.86 1009.1
15 19:53 SE 7 10.00 Partly Cloudy SCT065 90 66.9 47% 93 29.86 1009.0
15 18:53 S 6 10.00 Fair CLR 91.9 66 93.9 88 43% 95 29.85 1008.8
15 17:53 S 7 G 21 10.00 Fair CLR 93 62.1 36% 94 29.86 1009.2
15 16:53 S 8 G 18 10.00 Partly Cloudy SCT070 91.9 64 40% 94 29.88 1009.8
15 15:53 S 6 G 17 10.00 A Few Clouds FEW065 91.9 64.9 41% 94 29.9 1010.3
15 14:53 SE 6 10.00 Mostly Cloudy BKN060 91 64.9 42% 93 29.91 1010.7
15 13:53 S 9 10.00 Partly Cloudy SCT055 91 66 44% 94 29.93 1011.6
15 12:53 Vrbl 6 10.00 Partly Cloudy FEW049 SCT060 89.1 68 89.1 75 50% 93 29.96 1012.4
15 11:53 S 6 10.00 A Few Clouds FEW037 86 69.1 57% 90 29.98 1013.2
15 10:53 S 9 10.00 Mostly Cloudy SCT027 BKN034 84 71.1 65% 89 29.99 1013.4
15 09:53 S 7 10.00 Partly Cloudy FEW020 SCT037 81 72 74% 85 30 1013.9
15 08:53 S 8 10.00 Fair CLR 80.1 73.9 82% 85 30.01 1014.3
15 07:53 S 5 10.00 Fair CLR 77 73.9 90% 78 30 1013.9
15 06:53 Calm 10.00 Mostly Cloudy SCT011 BKN016 75 73 79 73.9 94% 73 29.99 1013.5
15 05:53 Calm 10.00 Overcast OVC012 75 72 90% 74 29.98 1013.1
15 04:53 S 3 10.00 Fair CLR 75 71.1 88% 75 29.97 1012.7
15 03:53 S 3 10.00 Fair CLR 75.9 70 82% 77 29.97 1012.6
15 02:53 S 6 10.00 Fair CLR 78.1 68 71% 80 29.96 1012.5
15 01:53 SE 3 10.00 Fair CLR 77 69.1 77% 79 29.97 1012.8
15 00:53 SE 3 10.00 Fair CLR 78.1 70 91 78.1 76% 80 29.99 1013.4
14 23:53 E 6 10.00 Fair CLR 80.1 70 71% 83 29.99 1013.7
14 22:53 E 5 10.00 Fair CLR 81 69.1 67% 84 29.99 1013.4
14 21:53 E 3 10.00 Fair CLR 82 68 63% 85 29.97 1012.7
14 20:53 E 5 10.00 Fair CLR 84 68 59% 87 29.94 1011.9
14 19:53 E 6 10.00 Fair CLR 89.1 66.9 48% 92 29.93 1011.6
14 18:53 E 10 10.00 Fair CLR 91 66 95 88 44% 94 29.93 1011.3
14 17:53 E 7 10.00 Fair CLR 93 64.9 40% 95 29.93 1011.5
14 16:53 SE 8 10.00 A Few Clouds FEW065 93 66 41% 96 29.94 1011.9
14 15:53 Calm 10.00 Partly Cloudy SCT065 93.9 66 40% 97 29.96 1012.3
14 14:53 SE 5 10.00 A Few Clouds FEW065 91.9 66 43% 95 29.98 1012.9
14 13:53 Vrbl 5 10.00 Overcast OVC055 89.1 66.9 48% 92 30 1014.0
14 12:53 S 6 10.00 Partly Cloudy FEW049 SCT055 90 69.1 90 75 50% 95 30.02 1014.5
14 11:53 Calm 10.00 Mostly Cloudy BKN045 86 68 55% 89 30.03 1014.8
14 10:53 Vrbl 6 10.00 A Few Clouds FEW041 FEW048 84.9 72 65% 91 30.03 1014.8
14 09:53 S 7 10.00 Fair CLR 82 73 74% 87 30.03 1014.8
14 08:53 S 5 10.00 Fair CLR 80.1 73.9 82% 85 30.03 1014.9
14 07:53 SE 5 10.00 Fair CLR 77 73.9 90% 78 30.02 1014.5
14 06:53 Calm 10.00 Fair CLR 75 73 78.1 75 94% 73 30.02 1014.4
Date Time (cdt) Wind (mph) Vis. (mi.) Weather Sky Cond. Air Dwpt Max. Min. Relative Humidity Wind Chill (°F) Heat Index (°F) altimeter (in) sea level (mb) 1 hr 3 hr 6 hr
6 hour
Temperature (ºF) Pressure Precipitation (in)